TimePST,TemperatureF,Dew PointF,Humidity,Sea Level PressureIn,VisibilityMPH,Wind Direction,Wind SpeedMPH,Gust SpeedMPH,PrecipitationIn,Events,Conditions,WindDirDegrees,DateUTC
12:53 AM,55.0,33.1,43,30.29,10.0,Calm,Calm,-,N/A,,Clear,0,2013-03-01 08:53:00
1:53 AM,54.0,32.0,43,30.28,10.0,Calm,Calm,-,N/A,,Clear,0,2013-03-01 09:53:00
2:53 AM,52.0,32.0,47,30.27,10.0,Calm,Calm,-,N/A,,Clear,0,2013-03-01 10:53:00
3:53 AM,52.0,32.0,47,30.27,10.0,Calm,Calm,-,N/A,,Clear,0,2013-03-01 11:53:00
4:53 AM,52.0,30.0,43,30.26,10.0,Calm,Calm,-,N/A,,Clear,0,2013-03-01 12:53:00
5:53 AM,50.0,33.1,52,30.26,10.0,Calm,Calm,-,N/A,,Clear,0,2013-03-01 13:53:00
6:53 AM,51.1,32.0,48,30.25,10.0,Calm,Calm,-,N/A,,Clear,0,2013-03-01 14:53:00
7:53 AM,62.1,30.9,31,30.25,10.0,Calm,Calm,-,N/A,,Clear,0,2013-03-01 15:53:00
8:53 AM,78.1,18.0,10,30.24,10.0,NE,8.1,-,N/A,,Clear,50,2013-03-01 16:53:00
9:53 AM,82.0,18.0,9,30.24,10.0,NNE,8.1,-,N/A,,Clear,30,2013-03-01 17:53:00
10:53 AM,79.0,28.9,16,30.22,10.0,SSW,10.4,-,N/A,,Clear,200,2013-03-01 18:53:00
11:53 AM,82.0,25.0,12,30.21,10.0,SW,9.2,-,N/A,,Clear,230,2013-03-01 19:53:00
3:53 PM,81.0,21.0,11,30.14,10.0,West,6.9,-,N/A,,Partly Cloudy,260,2013-03-01 23:53:00
4:53 PM,79.0,21.9,12,30.14,10.0,WSW,6.9,-,N/A,,Partly Cloudy,240,2013-03-02 00:53:00
5:53 PM,75.9,24.1,15,30.16,10.0,SW,3.5,-,N/A,,Partly Cloudy,230,2013-03-02 01:53:00
6:53 PM,71.1,27.0,19,30.17,10.0,Calm,Calm,-,N/A,,Clear,0,2013-03-02 02:53:00
7:53 PM,68.0,30.0,24,30.18,10.0,Calm,Calm,-,N/A,,Clear,0,2013-03-02 03:53:00
8:53 PM,66.9,32.0,27,30.19,10.0,ESE,3.5,-,N/A,,Clear,110,2013-03-02 04:53:00
9:53 PM,64.0,30.0,28,30.19,10.0,NNE,4.6,-,N/A,,Clear,30,2013-03-02 05:53:00
10:53 PM,62.1,32.0,32,30.20,10.0,Calm,Calm,-,N/A,,Clear,0,2013-03-02 06:53:00
11:53 PM,60.1,33.1,36,30.20,10.0,NNE,3.5,-,N/A,,Clear,30,2013-03-02 07:53:00